Weather History for RJCC - March, 2013

Change the Weather History Date:

Monday, March 4, 2013

  Actual Average Record
Temperature  
Mean Temperature 20 °F -  
Max Temperature 30 °F 38 °F 41 °F (2001)
Min Temperature 10 °F 21 °F -2 °F (2005)
Degree Days  
Heating Degree Days 45    
Moisture  
Dew Point 20 °F    
Average Humidity 84    
Maximum Humidity 100    
Minimum Humidity 55    
Precipitation  
Precipitation 0.00 in - - ()
Sea Level Pressure  
Sea Level Pressure 29.99 in    
Wind  
Wind Speed 6 mph ()    
Max Wind Speed 16 mph    
Max Gust Speed -    
Visibility 5.6 miles    
Events Snow    
Averages and records for this station are not official NWS values.
T = Trace of Precipitation, MM = Missing Value Source: Averaged Metar Reports

Daily Weather History Graph

Daily Weather History Graph

Search for Another Location

Airport or City:

Trip Planner

Search our weather history database for the weather conditions in past years. The results will help you decide how hot, cold, wet, or windy it might be!

Date:

Astronomy

Mar. 04, 2013 Rise Set
Actual Time 6:04 AM JST 5:25 PM JST
Civil Twilight 5:36 AM JST 5:54 PM JST
Nautical Twilight 5:03 AM JST 6:27 PM JST
Astronomical Twilight 4:30 AM JST 6:59 PM JST
Moon No Moon Rise 9:28 AM JST (3/4)
Length of Visible Light 12h 17m
Length of Day
11h 21m
Waning Gibbous, 59% of the Moon is Illuminated
Mar 4
Waning Gibbous
Mar 5
Last Quarter
Mar 12
New
Mar 20
First Quarter
Mar 27
Full

Hourly Weather History & Observations

Time (JST) Temp. Windchill Dew Point Humidity Pressure Visibility Wind Dir Wind Speed Gust Speed Precip Events Conditions
12:00 AM 21.2 °F - 19.4 °F 93% 29.98 in 2.8 mi Variable 2.3 mph - N/A Snow Light Snow Showers
12:30 AM 21.2 °F 16.4 °F 19.4 °F 93% 29.98 in 4.3 mi NNW 3.5 mph - N/A Snow Light Snow Showers
1:00 AM 21.2 °F - 19.4 °F 93% 29.98 in 3.1 mi NNE 2.3 mph - N/A Snow Light Snow Showers
1:30 AM 21.2 °F - 19.4 °F 93% 29.98 in 5.0 mi Variable 1.2 mph - N/A Snow Light Snow Showers
2:00 AM 21.2 °F 16.4 °F 19.4 °F 93% 29.98 in 5.0 mi SW 3.5 mph - N/A Snow Light Snow Showers
2:30 AM 21.2 °F 16.4 °F 19.4 °F 93% 29.98 in 6.2 mi West 3.5 mph - N/A Snow Light Snow Showers
3:00 AM 19.4 °F 14.3 °F 19.4 °F 100% 29.98 in 6.2 mi WNW 3.5 mph - N/A Snow Light Snow Showers
3:30 AM 14.0 °F 8.2 °F 12.2 °F 93% 29.98 in 6.2 mi NNW 3.5 mph - N/A Snow Light Snow Showers
4:00 AM 17.6 °F 10.7 °F 17.6 °F 100% 30.01 in 6.2 mi WSW 4.6 mph - N/A Snow Light Snow Showers
4:30 AM 17.6 °F 12.3 °F 15.8 °F 93% 30.01 in 6.2 mi WNW 3.5 mph - N/A Snow Light Snow Showers
5:00 AM 15.8 °F 10.2 °F 12.2 °F 86% 30.01 in 6.2 mi Variable 3.5 mph - N/A Snow Light Snow Showers
5:30 AM 15.8 °F - 14.0 °F 93% 30.01 in 6.2 mi East 2.3 mph - N/A Snow Light Snow Showers
6:00 AM 10.4 °F - 8.6 °F 92% 30.01 in 6.2 mi Calm Calm - N/A   Partly Cloudy
6:30 AM 12.2 °F - 10.4 °F 92% 30.04 in 6.2 mi Calm Calm - N/A   Partly Cloudy
7:00 AM 14.0 °F 8.2 °F 12.2 °F 93% 30.04 in 6.2 mi WNW 3.5 mph - N/A   Partly Cloudy
7:30 AM 15.8 °F - 14.0 °F 93% 30.04 in 6.2 mi WSW 2.3 mph - N/A   Scattered Clouds
8:00 AM 15.8 °F - 14.0 °F 93% 30.04 in 6.2 mi Variable 2.3 mph - N/A   Scattered Clouds
8:30 AM 19.4 °F 12.8 °F 15.8 °F 86% 30.04 in 6.2 mi SE 4.6 mph - N/A   Partly Cloudy
9:00 AM 21.2 °F 13.6 °F 15.8 °F 80% 30.04 in 6.2 mi SSE 5.8 mph - N/A   Partly Cloudy
9:30 AM 24.8 °F 17.9 °F 15.8 °F 69% 30.04 in 6.2 mi SSE 5.8 mph - N/A   Partly Cloudy
10:00 AM 26.6 °F 19.1 °F 14.0 °F 59% 30.04 in 6.2 mi SSE 6.9 mph - N/A   Partly Cloudy
10:30 AM 26.6 °F 18.2 °F 15.8 °F 64% 30.04 in 6.2 mi SSE 8.1 mph - N/A   Partly Cloudy
11:00 AM 28.4 °F 19.1 °F 14.0 °F 55% 30.01 in 6.2 mi South 10.4 mph - N/A   Partly Cloudy
11:30 AM 28.4 °F 18.0 °F 15.8 °F 59% 30.01 in 6.2 mi South 12.7 mph - N/A   Scattered Clouds
12:00 PM 28.4 °F 17.5 °F 15.8 °F 59% 30.01 in 6.2 mi South 13.8 mph - N/A   Mostly Cloudy
12:30 PM 28.4 °F 17.0 °F 17.6 °F 64% 29.98 in 6.2 mi South 15.0 mph - N/A Snow Light Snow Showers
1:00 PM 30.2 °F 19.8 °F 19.4 °F 64% 29.98 in 6.2 mi South 13.8 mph - N/A Snow Light Snow Showers
1:30 PM 28.4 °F 17.5 °F 19.4 °F 69% 29.98 in 6.2 mi South 13.8 mph - N/A Snow Light Snow Showers
2:00 PM 30.2 °F 19.3 °F 19.4 °F 64% 29.98 in 6.2 mi South 15.0 mph - N/A Snow Light Snow Showers
2:30 PM 30.2 °F 19.3 °F 21.2 °F 69% 29.98 in 6.2 mi South 15.0 mph - N/A Snow Light Snow Showers
3:00 PM 30.2 °F 18.9 °F 23.0 °F 75% 29.98 in 6.2 mi South 16.1 mph - N/A Snow Light Snow Showers
3:30 PM 28.4 °F 17.0 °F 23.0 °F 80% 29.98 in 6.2 mi South 15.0 mph - N/A Snow Light Snow Showers
4:00 PM 28.4 °F 17.5 °F 24.8 °F 86% 29.98 in - South 13.8 mph - N/A Snow Light Snow Showers
4:30 PM 28.4 °F 18.0 °F 24.8 °F 86% 29.98 in 2.5 mi South 12.7 mph - N/A Snow Light Snow Showers
4:46 PM 28.4 °F 18.0 °F 26.6 °F 93% 29.98 in 3.1 mi South 12.7 mph - N/A Snow Light Snow Showers
5:00 PM 28.4 °F 18.0 °F 24.8 °F 86% 29.98 in 3.1 mi South 12.7 mph - N/A Snow Light Snow Showers
5:30 PM 28.4 °F 19.7 °F 24.8 °F 86% 29.98 in 5.0 mi SSE 9.2 mph - N/A Snow Light Snow Showers
6:00 PM 28.4 °F 19.1 °F 24.8 °F 86% 29.98 in 5.0 mi South 10.4 mph - N/A Snow Light Snow Showers
6:30 PM 28.4 °F 19.7 °F 26.6 °F 93% 29.98 in - SSE 9.2 mph - N/A Snow Light Snow Showers
6:38 PM 28.4 °F 20.4 °F 26.6 °F 93% 29.98 in - SSE 8.1 mph - N/A Snow Light Snow Showers
6:46 PM 28.4 °F 20.4 °F 26.6 °F 93% 29.98 in - SSE 8.1 mph - N/A Snow Light Snow Showers
6:49 PM 28.4 °F 20.4 °F 26.6 °F 93% 29.98 in 3.1 mi SSE 8.1 mph - N/A Snow Light Snow Showers
7:00 PM 28.4 °F 21.2 °F 26.6 °F 93% 29.98 in 3.1 mi SSE 6.9 mph - N/A Snow Light Snow Showers
7:30 PM 26.6 °F 18.2 °F 24.8 °F 93% 29.98 in 6.2 mi SSE 8.1 mph - N/A Snow Light Snow Showers
8:00 PM 26.6 °F 19.1 °F 23.0 °F 86% 29.98 in 6.2 mi ESE 6.9 mph - N/A   Scattered Clouds
8:30 PM 24.8 °F 16.9 °F 23.0 °F 93% 29.98 in 6.2 mi ESE 6.9 mph - N/A Snow Light Snow Showers
9:00 PM 24.8 °F 17.9 °F 21.2 °F 86% 29.98 in 6.2 mi ESE 5.8 mph - N/A Snow Light Snow Showers
9:30 PM 26.6 °F 21.2 °F 23.0 °F 86% 29.98 in 6.2 mi SE 4.6 mph - N/A Snow Light Snow Showers
10:00 PM 26.6 °F 19.1 °F 23.0 °F 86% 29.98 in 6.2 mi SE 6.9 mph - N/A Snow Light Snow Showers
10:30 PM 26.6 °F 18.2 °F 23.0 °F 86% 29.98 in 6.2 mi SE 8.1 mph - N/A Snow Light Snow Showers
11:00 PM 24.8 °F 17.9 °F 21.2 °F 86% 29.98 in 6.2 mi SSE 5.8 mph - N/A Snow Light Snow Showers
11:30 PM 23.0 °F 14.7 °F 19.4 °F 86% 29.98 in 6.2 mi SSE 6.9 mph - N/A   Mostly Cloudy